Terug naar catalogus

KAZSAT 2

ActiefCommunicatieGEO
NORAD 37749·PAYLOAD·🇰🇿 Kazakhstan

Gelanceerd Jul 15, 2011 vanaf Baikonur Cosmodrome

Loading…

TLE

VersSource: Space-Track

Epoch: Sep 14, 2026, 14:12 UTC

1 37749U 11035B   26257.59226109 -.00000206  00000-0  00000-0 0  9995
2 37749   0.0195  72.2973 0001043 158.4787  62.5291  1.00273161 54291

Volg KAZSAT 2 in realtime met AllMySat

Download on the App Store